Location: Ch?enovice
(49.7164°N, 15.2160°E)
Time: 19:38:51
(UTC+00:00)

Lacrosse 5 rocket - Pass Details

Date: 23 May 2024
Orbit: 445 x 572 km, 57.0° (Epoch: 20 June)

Event Time Altitude Azimuth Distance (km) Brightness Sun altitude
Rises 01:21:49 0° 300° (WNW) 2,727 4.8 -12.6°
Reaches altitude 10° 01:24:13 10° 291° (WNW) 1,810 3.8 -12.3°
Maximum altitude 01:27:56 34° 227° (SW) 884 1.8 -12.0°
Drops below altitude 10° 01:31:29 10° 161° (SSE) 1,728 3.5 -11.6°
Sets 01:33:44 0° 152° (SSE) 2,585 4.5 -11.4°
